CAPE
0 0 0 0 0 0 5 26 47 45 18 98 65 95 450 821 709 543 515 477 183 166 211 241 175 116 39 82 163 230 309 550 759 569 136 141 422 568 575 589 374 179 2 0
0 0 0 0 0 0 18 17 46 19 0 5 38 55 144 748 1026 959 852 835 838 611 260 384 467 240 168 189 245 326 455 661 771 609 190 358 566 550 457 212 61 0 0 0
0 0 0 0 3 10 22 23 14 8 0 0 8 46 127 238 599 863 808 753 742 756 858 745 680 748 452 267 321 367 561 841 990 719 358 342 524 235 65 3 0 0 0 0
0 0 0 0 0 5 15 0 0 3 0 32 0 74 64 136 276 419 606 606 762 699 698 831 1069 899 838 576 513 492 554 834 989 866 465 233 227 410 132 4 0 0 0 0
0 0 0 0 0 0 7 0 6 11 34 32 40 42 39 9 162 256 517 612 634 694 696 813 935 1191 934 756 650 796 785 908 1070 990 730 565 436 582 278 2 0 0 0 0
3 0 0 0 0 0 0 0 1 13 43 64 37 69 74 65 24 48 170 500 665 694 781 838 899 1051 1231 1082 903 935 962 993 1049 853 396 402 396 505 77 2 0 0 0 0
0 0 0 0 0 0 0 12 93 49 69 72 36 68 105 51 2 19 55 135 485 732 801 857 929 1073 1258 1391 1351 1233 1136 746 923 579 195 256 326 488 3 3 0 0 0 0
0 5 0 0 0 1 0 44 81 18 6 31 0 15 56 4 17 41 69 37 59 414 766 840 871 969 1154 1410 1647 1478 1367 670 147 38 251 441 314 370 11 10 0 0 0 0
0 1 0 0 0 0 1 17 18 96 36 29 23 11 21 0 7 18 63 68 93 90 123 425 757 863 937 1089 1519 1570 1373 999 682 110 0 99 148 133 80 5 0 0 0 0
0 4 0 0 0 0 9 8 49 105 60 29 29 18 57 1 0 0 0 1 124 240 104 102 193 369 734 857 1198 1367 1445 1407 1089 113 92 147 163 96 77 8 0 0 0 0
0 6 29 13 13 18 19 32 37 84 93 60 39 43 16 0 0 0 0 1 32 124 394 360 352 387 547 664 945 1100 1299 1407 1411 613 493 418 461 277 167 24 2 0 0 0
0 0 45 15 2 1 19 22 80 102 38 23 67 35 3 1 0 0 2 0 0 48 201 558 645 763 884 903 916 1028 1110 1178 1288 1301 1169 790 528 331 72 5 2 2 0 0
0 1 26 19 0 0 1 0 0 13 4 48 299 81 6 1 0 0 0 0 0 0 130 560 812 977 1059 1135 1159 1155 1185 1134 1109 902 693 382 23 7 6 4 2 1 1 0
8 3 0 12 2 7 14 3 9 20 101 59 91 35 60 43 11 31 34 0 0 0 0 425 785 859 872 879 805 741 719 516 135 0 5 10 4 2 2 1 0 2 2 0
13 12 3 2 0 0 0 0 0 2 5 91 87 69 64 4 28 3 0 0 0 0 0 197 618 766 658 592 511 405 134 0 0 0 0 0 1 2 3 2 1 0 0 0
10 4 7 4 0 0 0 0 0 0 0 3 66 31 0 0 0 0 0 0 0 0 1 87 215 334 271 191 139 0 0 0 0 0 0 0 0 0 0 0 0 0 0 0
32 31 7 8 4 0 0 0 0 11 12 57 43 38 0 0 0 0 0 0 0 0 0 0 0 0 0 0 0 0 0 0 0 0 0 0 0 0 0 0 0 0 0 0
34 15 50 32 2 45 0 7 26 24 21 33 9 5 0 0 0 0 0 0 0 0 0 0 0 0 0 0 0 0 0 0 0 0 0 0 0 0 0 0 0 0 1 0
50 56 39 112 19 0 0 0 1 40 37 39 54 1 0 0 0 0 0 0 0 0 0 0 0 0 0 0 0 0 0 0 0 0 0 0 0 0 1 3 5 3 11 12
0 2 165 0 29 22 0 3 0 2 58 89 6 0 0 0 0 0 0 0 0 0 0 0 0 0 0 0 0 0 0 0 0 0 0 0 1 4 8 9 9 13 13 6
1 2 59 73 85 7 0 0 0 36 168 47 0 0 0 0 0 0 0 0 0 0 0 0 0 0 0 0 0 0 0 0 0 0 3 4 8 9 8 6 3 1 0 0
32 87 39 59 100 24 0 0 16 153 17 0 0 0 0 0 0 0 0 0 0 0 0 0 0 0 0 0 0 0 0 1 1 0 0 0 0 0 0 0 0 0 0 0
51 77 134 82 48 90 0 25 0 8 0 0 0 0 0 0 0 0 0 0 0 0 0 0 0 0 0 0 0 0 0 0 0 0 0 0 0 0 0 0 0 0 0 0
0 0 0 6 48 24 3 0 0 0 0 0 0 0 0 0 0 0 0 0 0 0 0 0 0 0 0 0 0 0 0 0 0 0 0 0 0 0 0 0 0 0 0 0
42 0 15 29 50 0 0 0 0 0 0 0 0 0 0 0 0 0 0 0 0 0 0 0 0 0 0 0 0 0 0 0 0 0 0 0 0 0 0 0 0 0 0 0
0 3 46 175 112 110 158 56 0 0 0 0 0 0 0 0 0 0 0 0 0 0 0 0 0 0 0 0 0 0 0 0 0 0 0 0 0 0 0 0 0 0 0 0
CIN
0 0 0 0 0 0 0 -1 -1 0 -7 -4 -3 -1 -23 -57 -60 -45 -22 -2 -24 -35 -29 -23 -36 -64 -99 -48 -16 -2 0 0 0 0 -4 -11 0 0 0 -1 -11 -30 -46 0
0 0 0 0 0 0 -13 -2 0 -5 0 -19 -10 -5 -15 -44 -49 -35 -15 -6 -1 0 -21 -15 -10 -66 -105 -86 -64 -17 -2 0 0 0 -18 -1 0 0 0 -14 -69 0 0 0
0 0 0 0 -30 -23 -10 0 -4 -6 0 0 -27 -6 -25 -44 -44 -40 -38 -17 -1 -1 0 -9 -31 -29 -61 -92 -75 -49 -10 0 -1 0 -14 -11 -1 -33 -103 -53 0 0 0 0
0 0 0 0 0 -22 -2 0 0 -10 -1 0 -3 -1 -6 -12 -42 -49 -29 -35 -23 -14 -14 -5 -11 -32 -42 -62 -54 -53 -25 -1 0 -2 -11 -48 -60 -31 -104 -46 0 0 0 0
0 0 0 -2 0 0 -1 0 -11 -9 -2 -15 -10 -1 -5 -17 -15 -16 -38 -36 -27 -24 -17 -20 -23 -29 -46 -55 -72 -50 -25 -7 -1 0 -1 -22 -37 -3 -38 0 0 0 0 0
-1 0 0 0 0 0 0 -1 -7 -15 -5 0 -5 -6 0 0 -12 -8 -8 -26 -28 -25 -20 -23 -30 -25 -23 -51 -79 -75 -43 -8 0 0 -39 -25 -24 -4 -77 0 0 0 0 0
0 0 0 0 0 0 0 -20 0 -1 0 0 -41 -17 -2 -9 -18 -42 -30 -13 -21 -22 -26 -28 -36 -30 -35 -43 -70 -72 -45 -57 -17 -30 -101 -53 -45 -9 -96 0 0 0 0 0
0 0 0 0 0 -4 0 -13 -1 -7 -1 0 0 -43 -1 -48 -96 -115 -92 -88 -79 -29 -25 -27 -36 -39 -43 -55 -67 -80 -81 -108 -342 -208 -83 -85 -87 -63 -82 0 0 0 0 0
0 0 0 0 0 0 -1 -30 -43 -9 -63 -5 -2 -32 -23 0 -97 -79 -73 -104 -88 -73 -76 -52 -39 -42 -73 -92 -97 -95 -88 -93 -114 -193 0 -181 -145 -146 -133 -49 0 0 0 0
0 0 0 0 0 0 -4 -16 -14 -7 -19 -26 -18 -22 -1 -3 0 0 0 -15 -58 -88 -154 -170 -155 -123 -96 -105 -126 -104 -86 -71 -71 -238 -248 -200 -170 -172 -147 -49 0 0 0 0
0 -3 -14 -43 -12 -1 -6 -13 -26 -14 -13 -19 -22 -8 -55 -5 0 0 0 -8 -71 -64 -83 -135 -177 -194 -188 -170 -159 -130 -89 -42 -14 -83 -103 -109 -78 -95 -85 -63 0 0 0 0
0 0 0 -1 -13 -1 -3 0 0 -1 -26 -59 -32 -79 -62 -37 0 0 -29 0 0 -105 -92 -101 -140 -174 -172 -183 -162 -150 -100 -51 -17 -13 -22 -50 -60 -75 -133 0 0 0 0 0
0 -2 0 0 0 0 -5 -1 0 -24 -76 -30 -3 -22 -72 -12 -6 0 0 0 0 0 -80 -91 -135 -148 -154 -165 -166 -140 -105 -66 -36 -49 -66 -100 -205 0 0 0 0 0 0 0
-23 -6 0 0 0 -1 -12 -12 -18 -11 -4 -12 -7 -16 -6 -3 -20 -7 -27 0 0 0 -10 -62 -110 -155 -178 -202 -216 -210 -198 -194 -292 0 -138 -125 0 0 0 0 0 0 0 0
-26 -3 -1 0 0 0 0 0 0 -6 -13 0 0 -1 -22 -1 -1 0 0 0 0 0 0 -162 -117 -132 -181 -231 -244 -243 -323 0 0 0 0 0 0 0 0 0 0 0 0 0
-49 -5 -1 -5 0 0 0 0 0 0 0 -4 -8 -9 0 0 0 0 0 0 0 0 -36 -277 -263 -250 -285 -309 -303 0 0 0 0 0 0 0 0 0 0 0 0 0 0 0
-56 -19 -30 -3 -50 -12 0 0 0 -17 -19 -29 -10 -28 0 0 0 0 0 0 0 0 0 0 0 0 0 0 0 0 0 0 0 0 0 0 0 0 0 0 0 0 0 0
-77 -63 -28 -20 -14 -29 0 -7 -21 -22 -26 -24 -38 -37 0 0 0 0 0 0 0 0 0 0 0 0 0 0 0 0 0 0 0 0 0 0 0 0 0 0 0 0 0 0
-89 -76 -71 -31 -32 0 0 0 -19 -41 -30 -14 -47 -2 0 0 0 0 0 0 0 0 0 0 0 0 0 0 0 0 0 0 0 0 0 0 0 0 0 0 0 0 0 0
0 -96 -19 -18 -19 -35 0 -26 0 -61 -61 -22 -18 0 0 0 0 0 0 0 0 0 0 0 0 0 0 0 0 0 0 0 0 0 0 0 0 0 0 0 0 0 0 0
-63 -65 -61 -48 -18 -9 0 0 0 -19 -47 -35 0 0 0 0 0 0 0 0 0 0 0 0 0 0 0 0 0 0 0 0 0 0 0 0 0 0 0 0 0 0 -1 0
-93 -96 -114 -52 -27 -24 0 0 -34 -26 -102 -7 0 0 0 0 0 0 0 0 0 0 0 0 0 0 0 0 0 0 0 0 0 0 0 0 0 0 0 0 0 0 0 0
-7 -71 -29 -44 -18 -42 0 -42 0 -75 0 0 0 0 0 0 0 0 0 0 0 0 0 0 0 0 0 0 0 0 0 0 0 0 0 0 0 0 0 0 0 0 0 0
0 0 0 -12 -18 -84 -174 0 0 0 0 0 0 0 0 0 0 0 0 0 0 0 0 0 0 0 0 0 0 0 0 0 0 0 0 0 0 0 0 0 0 0 0 0
-59 0 -26 -54 -46 0 0 0 0 0 0 0 0 0 0 0 0 0 0 0 0 0 0 0 0 0 0 0 0 0 0 0 0 0 0 0 0 0 0 0 0 0 0 0
0 -76 -78 -21 -23 -43 -9 -60 0 0 0 0 0 0 0 0 0 0 0 0 0 0 0 0 0 0 0 0 0 0 0 0 0 0 0 0 0 0 0 0 0 0 0 0
Wind_Speed
8 9 11 10 7 2 3 3 4 3 5 8 10 10 11 14 13 13 12 12 13 14 15 16 17 20 19 17 16 17 16 15 11 10 10 9 8 7 7 6 8 10 9 11
7 12 6 4 8 7 6 5 5 2 1 7 4 7 7 14 16 14 14 15 15 15 15 16 18 20 22 20 19 18 18 16 13 10 9 8 8 7 7 7 8 9 10 11
12 4 5 10 11 10 8 9 3 6 2 5 5 6 8 11 12 12 13 12 14 16 17 17 19 20 21 21 20 19 18 17 15 14 10 8 7 4 7 7 7 9 11 11
10 5 8 10 10 10 9 5 3 4 6 3 3 3 7 9 13 16 16 16 16 17 16 17 18 20 21 20 19 20 19 17 15 16 12 14 11 9 7 7 7 7 9 10
9 12 11 10 9 11 5 4 1 3 4 5 5 8 9 5 10 16 19 19 19 18 19 20 20 20 17 19 19 18 19 19 17 16 14 11 13 8 7 9 11 11 10 10
4 1 6 5 5 9 7 6 2 3 4 7 3 6 3 8 6 5 12 20 20 20 20 19 18 18 18 18 19 19 20 16 14 11 8 11 14 11 9 11 11 10 9 9
12 12 4 5 9 7 10 8 7 7 6 7 3 7 10 3 3 7 8 9 19 21 19 19 19 19 19 21 20 18 20 17 16 16 15 17 16 14 15 14 12 11 8 7
14 13 13 10 11 8 13 11 5 4 5 4 3 6 1 3 5 8 10 11 8 13 18 21 22 20 18 19 20 20 19 16 17 17 19 15 15 10 12 15 9 9 9 9
14 13 3 5 5 11 8 10 2 2 2 4 5 6 12 3 3 3 3 3 9 11 13 17 19 19 17 17 19 20 18 19 19 16 14 14 12 16 14 14 10 8 10 9
7 11 5 7 6 3 6 11 7 5 6 8 6 6 4 4 2 1 2 1 3 4 5 8 9 11 13 16 16 16 18 20 20 15 10 11 14 15 14 13 15 14 12 15
12 9 6 6 11 13 7 7 3 3 3 5 6 5 3 6 3 5 2 4 5 3 1 4 7 8 10 11 13 15 16 17 17 19 14 13 13 14 12 12 13 13 14 14
17 11 10 12 4 5 8 10 13 8 7 3 4 7 6 8 4 7 5 3 5 6 3 1 6 7 8 10 11 12 13 14 14 15 13 14 10 8 11 12 12 11 12 14
14 12 11 13 7 4 9 10 12 5 2 10 6 5 6 2 6 7 8 5 6 5 3 5 6 7 8 9 8 8 8 9 8 9 9 9 9 9 9 9 9 10 12 13
16 16 19 14 13 9 9 13 14 15 10 11 12 12 11 11 10 9 5 5 6 6 5 3 7 6 6 7 7 8 7 6 6 7 7 7 7 7 7 8 8 9 9 12
12 19 18 18 16 16 18 17 15 18 18 16 12 15 12 10 11 7 2 3 3 3 5 5 6 7 8 8 7 7 7 7 6 5 5 5 5 6 7 7 6 7 7 7
8 13 16 17 15 14 17 18 18 19 17 14 18 14 12 12 6 8 4 2 4 6 6 7 7 8 8 8 9 9 8 6 5 6 5 6 6 6 6 6 7 7 8 8
7 8 8 14 7 6 9 16 16 17 15 16 16 15 14 8 11 9 4 4 7 10 11 11 10 10 11 10 9 10 10 9 8 8 7 7 6 7 7 8 9 9 9 8
6 9 6 6 5 9 10 3 17 18 18 18 16 14 12 10 1 3 3 8 10 11 12 11 11 11 12 12 12 12 12 11 11 10 9 8 8 9 9 10 11 11 9 8
10 7 5 6 10 11 4 7 10 12 17 18 19 17 8 6 9 6 5 7 10 10 10 10 10 11 12 13 13 14 14 13 13 12 11 11 11 11 11 11 10 8 8 6
6 6 7 4 8 9 9 13 12 5 17 13 11 15 12 14 9 7 13 12 10 10 10 11 12 12 13 13 13 14 14 14 14 13 13 12 11 10 9 8 6 4 2 2
5 4 12 10 7 6 3 8 12 10 14 3 9 10 15 15 5 20 17 14 11 11 12 12 12 13 13 12 13 15 15 15 13 12 11 10 9 9 7 5 4 3 1 3
9 10 6 7 7 11 12 11 12 12 3 5 8 11 16 10 15 18 17 16 15 14 13 13 13 13 12 12 13 15 14 12 12 12 11 9 7 5 4 5 5 4 4 4
7 6 3 10 7 5 19 14 17 7 7 6 8 10 16 16 17 19 18 17 15 15 13 13 14 14 12 11 11 14 12 12 11 10 9 9 7 6 6 5 5 3 5 5
5 5 5 4 11 12 11 14 7 10 7 5 8 14 19 20 20 19 17 16 15 15 15 15 15 15 13 11 12 12 11 10 10 10 9 7 7 5 6 3 4 4 5 5
5 9 10 10 12 5 11 15 15 11 7 7 10 17 20 20 20 19 18 18 16 15 15 14 14 14 14 12 12 10 9 9 9 8 7 6 5 5 4 5 5 5 7 7
8 8 7 8 10 10 13 7 15 15 15 13 16 18 17 19 21 18 18 16 16 17 15 14 15 15 14 13 11 9 8 8 8 7 6 4 4 4 4 4 2 10 6 6
Wind_Direction
202 235 224 221 210 327 243 234 303 50 131 265 253 261 181 182 198 197 199 201 198 197 190 181 184 180 190 193 198 204 199 206 201 201 197 188 198 193 193 197 187 188 181 179
204 232 240 209 196 202 223 232 216 244 115 238 253 255 199 189 203 206 205 203 213 206 196 193 193 194 198 200 199 204 206 209 207 202 203 207 206 203 201 199 188 196 186 184
232 100 152 193 188 190 218 256 228 297 157 233 251 214 201 209 215 211 218 218 208 206 202 198 202 203 203 207 205 210 212 210 207 210 197 193 180 188 195 193 192 194 191 182
234 159 201 198 202 210 219 190 271 262 229 245 236 215 188 194 212 218 220 216 217 211 210 206 200 207 207 209 210 213 216 216 207 205 203 203 207 202 203 204 195 178 188 194
202 192 194 207 217 198 231 171 282 310 246 272 192 270 114 197 220 216 216 217 217 215 211 209 207 204 204 203 206 209 214 215 207 205 214 208 221 222 187 199 186 187 186 199
216 172 210 226 176 208 139 182 191 207 239 242 206 271 228 180 227 230 211 213 217 219 221 221 217 208 203 201 202 203 208 206 212 201 205 229 216 212 195 201 193 188 186 191
202 213 167 213 185 182 210 213 204 218 195 244 123 237 267 244 232 261 273 246 214 216 217 223 218 213 209 200 199 201 199 188 191 182 195 213 217 218 204 206 198 185 177 185
209 206 209 187 230 214 208 223 228 220 213 187 156 237 214 18 298 284 273 259 253 227 219 223 221 217 214 210 202 205 197 188 168 178 208 209 212 212 209 212 192 186 185 187
210 221 149 219 199 223 165 220 308 156 16 263 240 231 253 198 216 252 322 230 220 228 227 230 229 220 213 211 208 206 202 200 186 191 191 199 207 211 214 204 188 183 181 196
193 219 221 136 177 148 274 135 182 209 220 234 188 258 258 227 166 78 319 60 144 183 214 223 224 226 218 214 207 203 204 205 188 198 205 199 207 212 216 203 197 192 194 205
196 238 154 181 206 193 172 199 231 283 273 256 266 255 198 250 259 285 283 301 320 343 130 181 186 182 197 201 202 198 207 206 197 201 201 211 219 217 219 214 210 198 194 197
201 215 220 210 90 309 261 238 215 230 202 243 284 273 222 250 275 263 254 249 292 300 317 146 152 159 169 183 192 193 198 206 207 208 208 216 217 215 207 210 204 202 202 203
171 207 219 215 196 193 227 208 225 244 267 227 247 275 149 195 240 233 262 250 234 266 258 160 156 158 163 171 177 182 185 196 192 197 206 209 206 203 212 208 203 198 208 211
175 211 220 231 230 213 206 219 218 223 231 246 231 258 261 263 263 266 233 254 244 221 247 207 149 146 143 144 154 166 168 166 165 182 191 207 196 189 196 200 202 208 205 209
202 223 218 233 242 256 241 241 221 226 232 245 238 247 260 270 265 276 315 276 256 192 198 194 164 137 130 126 126 128 132 139 158 173 184 167 184 188 194 196 191 190 186 153
206 223 230 237 245 237 241 243 246 226 245 248 255 261 262 273 244 251 262 230 148 126 124 123 121 115 107 109 107 111 111 109 126 123 119 115 146 150 144 134 134 137 131 132
192 191 182 226 206 228 246 241 235 232 230 229 242 251 269 260 253 247 225 185 139 125 119 109 100 94 93 94 100 94 98 109 104 101 99 105 114 121 126 126 123 121 115 107
191 201 199 225 169 227 239 232 224 231 236 230 255 266 262 278 305 166 182 150 132 122 116 108 105 99 92 93 94 99 96 94 92 91 94 96 99 102 108 107 110 113 117 124
221 188 174 176 214 262 193 187 190 199 244 234 243 259 255 174 154 158 146 131 124 115 107 102 101 101 100 96 97 95 90 90 90 89 89 91 94 99 104 110 116 131 142 158
190 246 237 173 221 233 243 206 199 221 260 246 242 258 197 170 210 174 154 141 131 123 120 116 110 103 96 94 98 99 97 95 90 90 92 95 100 103 103 111 117 123 83 29
169 187 207 213 238 246 201 158 164 206 257 127 225 236 189 196 242 131 140 138 133 128 124 119 109 103 104 108 107 100 98 92 96 95 91 85 79 78 76 80 85 108 181 239
198 173 179 207 219 243 148 140 206 227 225 217 209 201 197 147 132 140 143 142 142 137 134 125 116 110 108 111 110 105 101 98 94 92 91 95 102 110 95 69 57 40 16 339
232 225 224 214 216 217 184 213 218 219 227 197 204 181 168 154 153 152 148 148 146 142 137 132 123 116 110 108 111 109 111 117 120 114 102 96 89 78 60 49 31 13 1 352
253 127 238 258 233 229 212 224 233 210 209 201 196 178 167 160 157 154 150 149 150 148 144 136 130 120 113 109 105 106 114 118 115 106 96 89 71 66 51 45 26 15 11 354
210 152 213 243 262 263 242 230 220 204 205 195 180 174 176 159 161 158 156 157 155 148 143 141 132 127 122 118 110 113 117 117 110 106 100 92 76 58 61 59 30 25 54 19
184 199 199 224 260 247 266 253 205 203 199 187 172 168 168 169 161 160 158 156 153 151 145 141 135 130 125 119 115 109 110 121 126 116 99 69 80 63 44 34 101 117 87 41